Location: Rock River
(41.7433°N, 105.9768°W)
Time: 01:28:36
(UTC+00:00)

X-37B - Visible Passes

Search period start: 20 January 2022 00:00
Search period end: 30 January 2022 00:00
Orbit: 334 x 337 km, 45.0° (Epoch: 11 January)

Date Brightness Start Highest point End Pass type
(mag) Time Alt. Az. Time Alt. Az. Time Alt. Az.
25 Jan 3.0 01:47:16 10° S 01:47:44 12° S 01:47:44 12° S visible
26 Jan 2.6 02:06:30 10° SW 02:07:37 20° SSW 02:07:37 20° SSW visible
27 Jan 2.6 00:52:44 10° S 00:54:20 14° SE 00:55:57 10° ESE visible
27 Jan 3.3 02:26:38 10° WSW 02:27:26 17° WSW 02:27:26 17° WSW visible
28 Jan 1.3 01:11:56 10° SW 01:14:33 34° SSE 01:15:56 20° E visible
28 Jan 4.1 02:47:10 10° W 02:47:10 10° W 02:47:10 10° W visible
29 Jan 0.2 01:32:05 10° WSW 01:34:54 82° SSE 01:35:38 46° ENE visible
